国际通讯卫星 3-F7星 (INTELSAT 3-F7)

导读 | 星芒AI

INTELSAT 3-F7 是一颗由国际通信卫星组织(INTELSAT)运营的通信卫星,于1973年发射,是INTELSAT III系列的一部分。该卫星主要用于跨大西洋的电视和电话信号传输,显著提升了国际通信能力。它搭载C波段转发器,运行在地球静止轨道,为北美和欧洲之间提供稳定的通信服务。INTELSAT 3-F7 在通信卫星发展史上具有重要意义,代表了20世纪70年代卫星通信技术的先进水平。

基本信息
目录编号:
4376
目录名称:
INTELSAT 3-F7
国际标识:
1970-032A
轨道中心:
EARTH
卫星名称:
国际通讯卫星 3-F7星
卫星全名:
国际通讯卫星 3-F7星 (INTELSAT 3-F7)
卫星状态:
在轨 (已飞行20325 天)
发射日期:
1970-04-23 UTC
国别 :
(ITSO)
星等 :
--
轨道信息
数据来源 国际轨道数据 AOE轨道数据
星历时间 2025-12-14T03:41:53+0800
1天前
查看轨道信息
2025-12-15T04:00:00+0800
12小时前
查看轨道信息
半长轴 42130.674km 42130.702km
偏心率 0.0005139 0.000506
轨道倾角 1.950° 1.952°
近地点辐角 196.787° 197.384°
升交点赤经 91.734° 91.710°
平近点角 162.647° 168.044°
近地点 35730.888km 35731.248km
远地点 35774.19km 35773.886km
周期 1434.357分钟 1434.359分钟
每日圈数 1.003934 1.003933
详细信息
卫星平台:
Intelsat
平衡模式:
自旋稳定
覆盖范围:
全球
运营商:
国际卫星通信公司
运营商所在国:
美国
制造商(研发单位):
天合汽车集团
制造商所在国:
美国
使用方式:
暂无
卫星简介
从1965年4月至1984年3月,国际通信卫星组织发射了5代、6种不同性能的卫星共计35颗,除6颗卫星因运载火箭和远地点发动机故障而发射失败外,其余29颗卫星均被送到了预定的静止轨道位置。1984年8月前后,国际通信卫星组织利用部署在大西洋、太平洋、印度洋上空的15颗国际通信卫星,为遍布世界各地170多个国家或地区提供电话、电传、电报、电视和数据传输等电信业务;该卫星已退役。
2D轨道图
3D轨道图
轨道高度分析图
轨道倾角分析图
轨道综合分析图
查看轨道综合分析图